Retour au catalogue

START 1 DEB

ActifLEO
NORAD 27752·DEBRIS·🇷🇺 Russia

Lancé Mar 25, 1993 depuis Plesetsk Cosmodrome

Loading…

Prochains Passages (prochaines 24 heures)

TLE

FraisSource: Space-Track

Époque: Sep 14, 2026, 09:14 UTC

1 27752U 93014G   26257.38529877  .00000243  00000-0  85907-4 0  9993
2 27752  75.7599 136.8172 0178751 196.8569 162.6605 14.29011795271632

Suivez START 1 DEB en temps réel avec AllMySat

Download on the App Store